Вернуться в каталог

COSMOS 1109 DEB

LostHEO
NORAD 12833·DEBRIS·🇷🇺 Russia

Запущен Jun 27, 1979 с Plesetsk Cosmodrome

Loading…

Ближайшие Пролёты (ближайшие 24 часа)

TLE

УстаревшееSource: Space-Track

Эпоха: Sep 16, 1999, 14:44 UTC

1 12833U 79058E   99259.61443205 +.00000673 +00000-0 +10000-1 0  9993
2 12833 065.5589 143.6094 6926485 158.4276 261.4784 02.00448581190157

Отслеживайте COSMOS 1109 DEB в реальном времени с AllMySat

Download on the App Store